Location: Newark
(26.8167°N, 79.5167°E)
Time: 02:11:04
(UTC+00:00)

Envisat - Visible Passes

Search period start: 01 October 2020 00:00
Search period end: 11 October 2020 00:00
Orbit: 764 x 766 km, 98.1° (Epoch: 30 September)

Date Brightness Start Highest point End Pass type
(mag) Time Alt. Az. Time Alt. Az. Time Alt. Az.
03 Oct 6.0 13:04:29 10° SW 13:08:11 20° W 13:11:53 10° NW visible
03 Oct 5.9 23:41:51 10° NE 23:45:34 20° E 23:49:16 10° SE visible
06 Oct 4.7 00:06:21 10° NNE 00:11:05 39° E 00:15:48 10° SSE visible
06 Oct 5.5 12:52:32 10° SSW 12:56:46 27° W 13:01:01 10° NW visible
06 Oct 6.2 23:31:13 10° ENE 23:34:08 15° E 23:37:04 10° SE visible
08 Oct 6.3 13:19:50 10° SW 13:22:20 14° W 13:24:50 10° WNW visible
08 Oct 5.3 23:55:17 10° NE 23:59:42 30° E 00:04:05 10° SSE visible
09 Oct 4.9 12:40:46 10° SSW 12:45:22 35° W 12:50:00 10° NNW visible
09 Oct 6.5 23:21:14 10° ENE 23:22:42 11° E 23:24:11 10° ESE visible
